• Join FlightAware (Why Join?)
  • Login
  • US Flag 
06:49PM EDT


 

Airport Tracker/Info


-or-


 

Live Flight TrackerFlight Track Log ✈ N682RW ✈ 16-Jun-2013 ✈ KMSP - KDTW

Flight Track Log - Related Links

Times and Time Zones

All times are in EDT time to prevent confusion due to time zone crossing. See the N682RW flight status page for this flight to view local times or setup timezone preferences in your user account.

Time Position Orientation Groundspeed Altitude Reporting Facility
EDT Latitude Longitude Course Direction KTS MPH feet Rate Location/Type
07:11PM 44.9333 -93.2333 117° Southeast 197 227 3,000  Level Minneapolis TRACON
07:12PM 44.9408 -93.2311 12° North 200 230 3,300 2,100 Climbing Minneapolis Center
07:13PM 44.9919 -93.1564 46° Northeast 263 303 5,700 1,740 Climbing Minneapolis Center
07:14PM 45.0458 -93.0681 49° Northeast 291 335 6,900 1,200 Climbing Minneapolis Center
07:15PM 45.0639 -92.9581 77° East 300 345 8,300 1,860 Climbing Minneapolis Center
07:16PM 45.0553 -92.8303 95° East 323 372 10,800 2,400 Climbing Minneapolis Center
07:17PM 44.6853 -92.3335 117° Southeast  Level Estimated
07:17PM 44.9617 -92.7242 141° Southeast 381 438 13,300  Level Minneapolis Center
07:18PM 44.8686 -92.6372 146° Southeast 401 461 16,100 2,460 Climbing Minneapolis Center
07:19PM 44.7722 -92.5533 148° Southeast 406 467 18,500 2,100 Climbing Minneapolis Center
07:20PM 44.6792 -92.4497 142° Southeast 432 497 20,500 1,800 Climbing Minneapolis Center
07:21PM 44.6061 -92.3119 127° Southeast 438 504 22,300 1,200 Climbing Minneapolis Center
07:22PM 44.5325 -92.1647 125° Southeast 454 522 23,000 900 Climbing Minneapolis Center
07:23PM 44.4572 -92.0183 126° Southeast 461 531 24,200 1,500 Climbing Minneapolis Center
07:24PM 44.3650 -91.8400 126° Southeast 470 541 26,100 1,440 Climbing Minneapolis Center
07:25PM 44.3000 -91.6700 118° Southeast 490 564 27,200 1,260 Climbing Minneapolis Center
07:26PM 44.2342 -91.4961 118° Southeast 504 580 28,800 1,260 Climbing Minneapolis Center
07:27PM 44.1675 -91.3208 118° Southeast 511 588 29,900 1,140 Climbing Minneapolis Center
07:28PM 44.0922 -91.1275 118° Southeast 522 601 31,200 1,260 Climbing Minneapolis Center
07:29PM 44.0244 -90.9497 118° Southeast 525 604 32,600 1,140 Climbing Minneapolis Center
07:30PM 43.9564 -90.7742 118° Southeast 521 600 33,600 960 Climbing Minneapolis Center
07:31PM 43.8744 -90.5658 119° Southeast 521 600 34,700 900 Climbing Minneapolis Center
07:32PM 43.8444 -90.4953 121° Southeast 521 600 35,000 180 Climbing Chicago Center
07:33PM 43.7772 -90.3181 118° Southeast 523 602 35,000  Level Chicago Center
07:33PM 43.7633 -90.1975 99° East 529 609 35,000  Level Minneapolis Center
07:34PM 43.7617 -90.0975 91° East 523 602 35,000  Level Chicago Center
07:35PM 43.7517 -89.8958 94° East 526 605 35,000  Level Chicago Center
07:36PM 43.7344 -89.6933 97° East 530 610 35,000  Level Chicago Center
07:37PM 43.7194 -89.4908 96° East 529 609 35,000  Level Chicago Center
07:38PM 43.6994 -89.2544 97° East 530 610 35,000  Level Chicago Center
07:39PM 43.6828 -89.0506 96° East 532 612 35,000  Level Chicago Center
07:40PM 43.6661 -88.8458 96° East 535 616 35,000  Level Chicago Center
07:41PM 43.6489 -88.6406 97° East 533 613 35,000  Level Chicago Center
07:42PM 43.6292 -88.4306 97° East 539 620 35,000  Level Chicago Center
07:43PM 43.6106 -88.2225 97° East 538 619 35,000  Level Chicago Center
07:44PM 43.5906 -88.0181 98° East 534 615 35,000 -180 Level Chicago Center
07:45PM 43.5686 -87.7819 97° East 530 610 34,700 -600 Descending Chicago Center
07:46PM 43.5492 -87.5797 97° East 530 610 33,800 -840 Descending Chicago Center
07:47PM 43.5297 -87.3772 97° East 532 612 33,000 -420 Descending Chicago Center
07:48PM 43.5078 -87.1592 98° East 541 623 33,000  Level Chicago Center
07:49PM 43.4864 -86.9542 98° East 540 621 33,000  Level Chicago Center
07:50PM 43.4661 -86.7497 98° East 539 620 33,000  Level Chicago Center
07:51PM 43.4447 -86.5458 98° East 538 619 33,000 -480 Level Chicago Center
07:52PM 43.4236 -86.3403 98° East 540 621 32,100 -1,020 Descending Chicago Center
07:54PM 43.4006 -86.1333 99° East 543 625 30,900 -1,320 Descending Chicago Center
07:55PM 43.3756 -85.9286 99° East 539 620 29,400 -1,500 Descending Chicago Center
07:56PM 43.3403 -85.7319 104° East 530 610 27,800 -2,160 Descending Chicago Center
07:57PM 43.3011 -85.5108 104° East 501 577 25,000 -2,340 Descending Chicago Center
07:58PM 43.2692 -85.3339 104° East 483 556 23,000 -1,020 Descending Chicago Center
07:59PM 43.2389 -85.1653 104° East 463 533 23,000  Level Chicago Center
08:00PM 43.2069 -84.9956 104° East 458 527 23,000  Level Chicago Center
08:01PM 43.1761 -84.8253 104° East 460 529 23,000 -420 Level Chicago Center
08:02PM 43.1381 -84.6597 107° East 459 528 22,200 -1,740 Descending Chicago Center
08:03PM 43.0736 -84.4747 115° Southeast 446 513 19,500 -2,340 Descending Chicago Center
08:04PM 43.0261 -84.3236 113° Southeast 433 498 17,400 -1,860 Descending Chicago Center
08:05PM 42.9564 -84.1094 114° Southeast 413 475 14,700 -1,800 Descending Cleveland Center
08:06PM 42.9375 -84.0489 113° Southeast 392 451 14,000 -1,620 Descending Cleveland Center
08:06PM 42.9089 -83.9622 114° Southeast 394 453 13,100 -1,380 Descending Cleveland Center
08:07PM 42.8953 -83.9219 115° Southeast 368 423 12,600 -1,020 Descending Cleveland Center
08:07PM 42.8686 -83.8411 114° Southeast 368 423 12,100 -540 Descending Cleveland Center
08:08PM 42.8553 -83.7922 110° East 329 379 12,100 -120 Level Cleveland Center
08:08PM 42.8278 -83.7286 121° Southeast 342 394 12,000 -480 Descending Cleveland Center
08:09PM 42.8072 -83.7161 156° South 325 374 11,700 -1,320 Descending Cleveland Center
08:09PM 42.7478 -83.6819 157° South 303 349 10,700 -1,560 Descending Cleveland Center
08:10PM 42.7128 -83.6661 162° South 309 356 10,000 -1,620 Descending Cleveland Center
08:10PM 42.6678 -83.6358 154° Southeast 303 349 9,100 -1,680 Descending Cleveland Center
08:11PM 42.6369 -83.6172 156° South 307 353 8,300 -1,620 Descending Cleveland Center
08:11PM 42.6050 -83.5650 130° Southeast 303 349 7,500 -1,620 Descending Cleveland Center
08:12PM 42.5853 -83.5217 122° Southeast 309 356 6,700 -1,500 Descending Cleveland Center
08:12PM 42.5575 -83.4669 125° Southeast 303 349 6,000 -600 Descending Cleveland Center
08:13PM 42.5378 -83.4236 122° Southeast 280 322 6,100 60 Climbing Cleveland Center
08:13PM 42.5139 -83.3775 125° Southeast 297 342 6,100 -120 Level Cleveland Center
08:14PM 42.4997 -83.3517 127° Southeast 257 296 6,000 -900 Descending Cleveland Center
08:14PM 42.4742 -83.2969 122° Southeast 276 318 5,200 -1,500 Descending Cleveland Center
08:15PM 42.4622 -83.2656 117° Southeast 250 288 4,500 -780 Descending Cleveland Center
08:16PM 42.4086 -83.2378 159° South 176 203 4,100 -360 Descending Cleveland Center
08:17PM 42.3664 -83.2614 202° Southwest 156 180 3,800 -540 Descending Cleveland Center
08:18PM 42.3283 -83.2908 210° Southwest 142 163 3,000 -720 Descending Cleveland Center
08:19PM 42.2986 -83.3147 211° Southwest 141 162 2,400 -780 Descending Cleveland Center
08:20PM 42.2603 -83.3439 209° Southwest 136 157 1,500 -840 Descending Cleveland Center